Overview Statistics Trail Chart Weather Telemetry Raw packets
 

This is the latest recevied weather packets stored in our database for station/object N2ZVN. If no packets are shown the sender has not sent any weather packets the latest 10 day(s).

<< 25 26 27 28 29 30 31 >>
Time Temp. Humidity Pressure Rain* Wind** Luminosity Snow
1788532177 23.33° C 70% 1016 hPa 0 mm - 580 W/m² -
1788531873 23.89° C 75% 1015.8 hPa 0 mm - 522 W/m² -
1788531573 22.78° C 75% 1016 hPa 0 mm - 486 W/m² -
1788531268 22.78° C 75% 1015.8 hPa 0 mm - 479 W/m² -
1788530965 22.78° C 75% 1016.1 hPa 0 mm - 434 W/m² -
1788530664 22.78° C 76% 1015.9 hPa 0 mm - 455 W/m² -
1788530363 23.89° C 72% 1015.9 hPa 0 mm - 469 W/m² -
1788530063 22.78° C 77% 1016.2 hPa 0 mm - 446 W/m² -
1788529760 22.78° C 74% 1016.1 hPa 0 mm - 444 W/m² -
1788529459 22.78° C 77% 1016.1 hPa 0 mm - 432 W/m² -
1788529165 22.22° C 78% 1016.2 hPa 0 mm - 401 W/m² -
1788528854 22.22° C 77% 1016.2 hPa 0 mm - 344 W/m² -
1788528550 22.22° C 80% 1016 hPa 0 mm - 347 W/m² -
1788528245 22.22° C 83% 1016 hPa 0 mm - 324 W/m² -
1788527944 22.22° C 81% 1016.2 hPa 0 mm - 198 W/m² -
1788527640 21.67° C 82% 1016.1 hPa 0 mm - 340 W/m² -
1788527335 21.67° C 82% 1015.9 hPa 0 mm - 235 W/m² -
1788527034 22.22° C 81% 1016.1 hPa 0 mm - 237 W/m² -
1788526729 22.22° C 81% 1016.1 hPa 0 mm - 282 W/m² -
1788526426 22.22° C 81% 1016.2 hPa 0 mm - 200 W/m² -
1788526124 22.22° C 81% 1016.4 hPa 0 mm - 254 W/m² -
1788525822 22.22° C 81% 1016.1 hPa 0 mm - 257 W/m² -
1788525516 21.67° C 83% 1016.2 hPa 0 mm - 234 W/m² -
1788525211 21.67° C 83% 1015.9 hPa 0 mm - 211 W/m² -
1788524907 20.56° C 87% 1016 hPa 0 mm - 189 W/m² -

* Rain latest hour (hover to see other rain measurements)
** Current wind speed in m/s (hover to see current wind gust speed)